TimeMST,TemperatureF,Dew PointF,Humidity,Sea Level PressureIn,VisibilityMPH,Wind Direction,Wind SpeedMPH,Gust SpeedMPH,PrecipitationIn,Events,Conditions,WindDirDegrees,DateUTC
12:53 AM,28.0,18.0,66,30.28,10.0,East,12.7,-,N/A,,Clear,100,2012-02-08 07:53:00
1:53 AM,26.1,17.1,69,30.29,10.0,ESE,6.9,-,N/A,,Clear,120,2012-02-08 08:53:00
2:53 AM,28.9,16.0,58,30.27,10.0,ESE,12.7,-,N/A,,Clear,120,2012-02-08 09:53:00
3:53 AM,26.1,16.0,66,30.29,10.0,ESE,4.6,-,N/A,,Clear,110,2012-02-08 10:53:00
4:53 AM,25.0,17.1,72,30.31,10.0,Calm,Calm,-,N/A,,Clear,0,2012-02-08 11:53:00
5:53 AM,27.0,17.1,66,30.32,10.0,SSE,3.5,-,N/A,,Partly Cloudy,150,2012-02-08 12:53:00
6:53 AM,30.0,17.1,59,30.32,10.0,South,3.5,-,N/A,,Partly Cloudy,170,2012-02-08 13:53:00
7:53 AM,28.0,19.0,69,30.35,10.0,Calm,Calm,-,N/A,,Mostly Cloudy,0,2012-02-08 14:53:00
8:53 AM,30.9,19.0,61,30.36,10.0,Calm,Calm,-,N/A,,Overcast,0,2012-02-08 15:53:00
9:53 AM,33.1,17.1,52,30.35,10.0,South,5.8,-,N/A,,Mostly Cloudy,170,2012-02-08 16:53:00
10:53 AM,36.0,17.1,46,30.34,10.0,Calm,Calm,-,N/A,,Mostly Cloudy,0,2012-02-08 17:53:00
11:53 AM,37.0,18.0,46,30.33,10.0,Calm,Calm,-,N/A,,Mostly Cloudy,0,2012-02-08 18:53:00
12:53 PM,39.0,17.1,41,30.29,10.0,Calm,Calm,-,N/A,,Mostly Cloudy,0,2012-02-08 19:53:00
1:53 PM,39.9,17.1,40,30.27,10.0,Calm,Calm,-,N/A,,Overcast,0,2012-02-08 20:53:00
2:53 PM,41.0,16.0,36,30.24,10.0,Calm,Calm,-,N/A,,Overcast,0,2012-02-08 21:53:00
3:53 PM,41.0,16.0,36,30.24,10.0,Calm,Calm,-,N/A,,Overcast,0,2012-02-08 22:53:00
4:53 PM,39.9,18.0,41,30.25,10.0,NW,4.6,-,N/A,,Overcast,310,2012-02-08 23:53:00
5:53 PM,37.9,19.9,48,30.27,10.0,NW,6.9,-,N/A,,Overcast,310,2012-02-09 00:53:00
6:53 PM,37.0,19.9,50,30.28,10.0,NNW,4.6,-,N/A,,Overcast,340,2012-02-09 01:53:00
7:53 PM,37.9,26.1,62,30.31,10.0,North,8.1,-,N/A,,Overcast,10,2012-02-09 02:53:00
8:24 PM,33.8,30.2,87,30.28,4.0,North,6.9,-,0.00,Snow,Light Snow,350,2012-02-09 03:24:00
8:34 PM,33.8,30.2,87,30.29,1.8,WNW,5.8,-,0.00,Snow,Light Snow,290,2012-02-09 03:34:00
8:53 PM,32.0,30.9,96,30.33,2.0,Calm,Calm,-,0.01,Snow,Light Snow,0,2012-02-09 03:53:00
9:07 PM,32.0,30.2,93,30.29,1.8,NNW,3.5,-,0.00,Snow,Light Snow,340,2012-02-09 04:07:00
9:53 PM,32.0,30.9,96,30.33,1.5,Calm,Calm,-,0.02,Snow,Light Snow,0,2012-02-09 04:53:00
10:23 PM,32.0,32.0,100,30.30,1.2,Calm,Calm,-,0.00,Snow,Light Snow,0,2012-02-09 05:23:00
10:32 PM,32.0,32.0,100,30.30,1.0,Calm,Calm,-,0.01,Snow,Light Snow,0,2012-02-09 05:32:00
10:39 PM,32.0,32.0,100,30.30,0.8,Calm,Calm,-,0.01,Snow,Light Snow,0,2012-02-09 05:39:00
10:49 PM,32.0,32.0,100,30.30,0.5,Calm,Calm,-,0.01,Fog-Snow,Light Snow,0,2012-02-09 05:49:00
10:53 PM,32.0,32.0,100,30.33,0.5,Calm,Calm,-,0.01,Fog-Snow,Light Snow,0,2012-02-09 05:53:00
11:36 PM,32.0,30.2,93,30.30,0.5,Calm,Calm,-,0.01,Fog-Snow,Light Snow,0,2012-02-09 06:36:00
11:53 PM,32.0,30.9,96,30.32,0.5,Calm,Calm,-,0.01,Fog-Snow,Light Snow,0,2012-02-09 06:53:00